Location: Caltech
(34.1382°N, 118.1253°W)
Time: 09:28:29
(UTC-07:00)

SL-16 R/B - Visible Passes

Search period start: 29 June 2016 00:00
Search period end: 09 July 2016 00:00
Orbit: 842 x 846 km, 71.0° (Epoch: 29 June)

Date Brightness Start Highest point End Pass type
(mag) Time Alt. Az. Time Alt. Az. Time Alt. Az.
29 Jun 3.4 21:13:30 10° NW 21:18:42 38° WSW 21:23:53 10° S visible
30 Jun 3.4 20:59:12 10° NW 21:04:28 40° WSW 21:09:42 10° S visible
01 Jul 3.4 20:44:56 10° NW 20:50:14 42° WSW 20:55:31 10° S visible
02 Jul 3.4 20:30:40 10° NW 20:36:00 44° WSW 20:41:19 10° S visible
